Regional Weather Roundup
Issued by NWS

Home | Current Version | Previous Version | Graphics & Text | Print | Product List | Glossary On
Versions: 1 2 3 4 5 6 7 8 9 10 11 12 13 14 15 16 17 18 19 20 21 22 23 24 25 26 27 28 29 30 31 32 33 34 35 36 37 38 39 40 41 42 43 44 45 46 47 48 49 50
000
ASUS43 KBIS 242010
RWRND

NORTH DAKOTA REGIONAL WEATHER ROUNDUP
NATIONAL WEATHER SERVICE BISMARCK ND
300 PM CDT SUN JUL 24 2016

NOTE: "FAIR" INDICATES FEW OR NO CLOUDS BELOW 12,000 FEET WITH NO
SIGNIFICANT WEATHER AND/OR OBSTRUCTIONS TO VISIBILITY.


NDZ001>003-009>011-017-242100-
NORTHWEST NORTH DAKOTA

CITY           SKY/WX    TMP DP  RH WIND       PRES   REMARKS
WILLISTON      SUNNY     83  51  33 NW6       30.02F
MINOT          SUNNY     83  54  36 W17G29    29.99S
MINOT AFB      SUNNY     78  54  42 NW20G29   29.98S
$$

NDZ018>021-031>035-040>046-242100-
SOUTHWEST NORTH DAKOTA

CITY           SKY/WX    TMP DP  RH WIND       PRES   REMARKS
BISMARCK       SUNNY     83  55  38 NW13G21   30.03F
DICKINSON      SUNNY     81  50  33 NW8       30.07S
GARRISON         N/A     79  57  46 W16G25    30.03S
HETTINGER ARPT SUNNY     87  42  20 W7        30.09F
$$

NDZ004>008-012>016-024-026-027-054-242100-
NORTHEAST NORTH DAKOTA

CITY           SKY/WX    TMP DP  RH WIND       PRES   REMARKS
GRAND FORKS    MOSUNNY   80  63  55 NW15G23   29.88R
GRND FRKS AFB  MOSUNNY   79  61  54 NW16      29.90R
DEVILS LAKE    MOSUNNY   77  57  50 W22G29    29.95S
$$

NDZ022-023-025-028>030-036>039-047>053-242100-
SOUTHEAST NORTH DAKOTA

CITY           SKY/WX    TMP DP  RH WIND       PRES   REMARKS
FARGO          MOSUNNY   82  59  45 W18G28    29.91R
JAMESTOWN      MOSUNNY   79  56  45 NW22G28   29.98R
$$





USA.gov is the U.S. government's official web portal to all federal, state and local government web resources and services.